Home > Weather > Freital > Past weeks

Flag for Germany Past Weather in Freital, Saxony, Germany — Yesterday and Last 2 Weeks

Now
75 °F

Clear.


Feels Like: 78 °F
Forecast: 64 / 85 °F
Wind: 8 mph from Southeast

Location: Dresden-Klotzsche

Current Time: Aug 26, 2016 at 10:04:11 PM

Latest Report: Aug 26, 2016 at 9:20 PM


Visibility: 10 mi

Pressure: 30.09 "Hg

Humidity: 47%

Dew Point: 54 °F

Location of FreitalLocation

Past Weather in Freital — Graph

°F

Freital Temperature Yesterday

Maximum temperature yesterday: 81 °F (at 2:50 PM)
Minimum temperature yesterday: 61 °F (at 1:20 AM)
Average temperature yesterday: 71 °F

High & Low Weather Summary for the Past Weeks

 TemperatureHumidityPressure
High86 °F (Aug 26, 3:50 PM)100% (Aug 12, 6:50 PM)30.36 "Hg (Aug 12, 6:50 PM)
Low46 °F (Aug 18, 5:20 AM)30% (Aug 19, 3:50 PM)29.80 "Hg (Aug 18, 3:50 PM)
Average65 °F70%30.11 "Hg
* Reported Aug 11 8:20 PM — Aug 26 8:50 PM, Freital, Weather by CustomWeather, © 2016

Note: Actual official high and low records may vary slightly from our data, if they occured in-between our weather recording intervals... More about our weather records

Advertising

Freital Weather History for the Previous 24 Hours

Scroll right to see more
 ConditionsComfort  
Time TempWeatherWind HumidityBarometerVisibility
8:50 PM
Fri, Aug 26
75 °FSunny.7 mph50%30.09 "Hg10 mi
8:20 PM77 °FSunny.8 mph47%30.07 "Hg10 mi
7:50 PM79 °FSunny.8 mph42%30.07 "Hg10 mi
7:20 PM81 °FSunny.9 mph39%30.07 "Hg10 mi
6:50 PM82 °FSunny.9 mph37%30.07 "Hg10 mi
6:20 PM82 °FPassing clouds.10 mph37%30.07 "HgN/A
5:50 PM84 °FPassing clouds.13 mph33%30.07 "HgN/A
5:20 PM84 °FSunny.12 mph33%30.07 "Hg10 mi
4:50 PM84 °FPassing clouds.13 mph33%30.07 "HgN/A
4:20 PM84 °FSunny.12 mph35%30.07 "Hg10 mi
3:50 PM86 °FSunny.14 mph33%30.07 "Hg10 mi
3:20 PM84 °FPassing clouds.14 mph33%30.07 "HgN/A
2:50 PM84 °FSunny.13 mph33%30.09 "Hg10 mi
2:20 PM82 °FSunny.15 mph35%30.09 "Hg10 mi
1:50 PM84 °FPassing clouds.13 mph33%30.09 "HgN/A
1:20 PM82 °FSunny.12 mph32%30.09 "Hg10 mi
12:50 PM82 °FPassing clouds.9 mph35%30.09 "HgN/A
12:20 PM81 °FPassing clouds.10 mph42%30.09 "HgN/A
11:50 AM79 °FSunny.13 mph42%30.09 "Hg10 mi
11:20 AM79 °FPassing clouds.10 mph45%30.09 "HgN/A
10:50 AM77 °FSunny.10 mph44%30.09 "Hg10 mi
10:20 AM75 °FSunny.13 mph50%30.09 "Hg10 mi
9:50 AM73 °FPassing clouds.14 mph53%30.09 "HgN/A
9:20 AM73 °FSunny.16 mph53%30.09 "Hg10 mi
8:50 AM72 °FSunny.15 mph57%30.09 "Hg10 mi
8:20 AM70 °FSunny.14 mph57%30.09 "Hg10 mi
7:50 AM70 °FSunny.12 mph57%30.09 "Hg10 mi
7:20 AM68 °FSunny.10 mph60%30.09 "Hg10 mi
6:50 AM68 °FClear.12 mph60%30.09 "Hg10 mi
6:20 AM66 °FClear.10 mph64%30.09 "Hg10 mi
5:50 AM66 °FClear.13 mph64%30.07 "Hg10 mi
5:20 AM66 °FClear.10 mph64%30.07 "Hg10 mi
4:50 AM66 °FClear.12 mph64%30.09 "Hg10 mi
4:20 AM66 °FClear.14 mph64%30.09 "Hg10 mi
3:50 AM68 °FClear.15 mph60%30.09 "Hg10 mi
3:20 AM68 °FClear.14 mph60%30.09 "Hg10 mi
2:50 AM68 °FClear.13 mph60%30.09 "Hg10 mi
2:20 AM68 °FClear.12 mph56%30.09 "Hg10 mi
1:50 AM68 °FClear.12 mph60%30.09 "Hg10 mi
1:20 AM68 °FClear.12 mph60%30.09 "Hg10 mi
12:50 AM68 °FClear.10 mph56%30.09 "Hg10 mi
12:20 AM68 °FClear.7 mph56%30.09 "Hg10 mi
11:50 PM
Thu, Aug 25
66 °FClear.3 mph60%30.12 "Hg10 mi
11:20 PM68 °FClear.5 mph60%30.12 "Hg10 mi
10:50 PM68 °FClear.2 mph60%30.12 "Hg10 mi
10:20 PM68 °FClear.3 mph64%30.12 "Hg10 mi
Weather by CustomWeather, © 2016

See weather overviewHow to use our weather pages